Flight Track Log - Related Links

Times and Time Zones

All times are in EDT time to prevent confusion due to time zone crossing. See the C-GJMM flight status page for this flight to view local times or setup timezone preferences in your user account.

Time Position Orientation Groundspeed Altitude Reporting Facility
EDT Latitude Longitude Course Direction KTS MPH feet Rate Location/Type
Wed 06:05:59 PM 46.7810 -71.4080 224° Southwest 146 168 700  Level FlightAware ADS-B
Wed 06:06:19 PM 46.7710 -71.4220 224° Southwest 158 182 1,300 2,182 Climbing FlightAware ADS-B
Wed 06:06:54 PM 46.7530 -71.4470 224° Southwest 155 178 2,700 2,304 Climbing FlightAware ADS-B
Wed 06:08:24 PM 46.7070 -71.5160 226° Southwest 154 177 6,100 2,139 Climbing FlightAware ADS-B
Wed 06:08:49 PM 46.6930 -71.5320 218° Southwest 175 201 6,800 1,200 Climbing FlightAware ADS-B
Wed 06:09:04 PM 46.6800 -71.5370 195° South 202 232 6,900  Climbing FlightAware ADS-B
Wed 06:09:29 PM 46.6570 -71.5460 195° South 219 252 6,800 -150 Descending FlightAware ADS-B
Wed 06:09:44 PM 46.6420 -71.5520 195° South 222 255 6,800 450 Level FlightAware ADS-B
Wed 06:10:09 PM 46.6180 -71.5640 199° South 211 243 7,100 1,320 Climbing FlightAware ADS-B
Wed 06:10:34 PM 46.6010 -71.5870 223° Southwest 203 234 7,900 1,964 Climbing FlightAware ADS-B
Wed 06:11:04 PM 46.5820 -71.6170 227° Southwest 203 234 8,900 1,855 Climbing FlightAware ADS-B
Wed 06:11:29 PM 46.5660 -71.6420 227° Southwest 203 234 9,600 1,091 Climbing FlightAware ADS-B
Wed 06:11:59 PM 46.5450 -71.6720 225° Southwest 226 260 9,900 450 Climbing FlightAware ADS-B
Wed 06:12:09 PM 46.5380 -71.6830 227° Southwest 234 269 9,900  Level FlightAware ADS-B
Wed 06:12:49 PM 46.5060 -71.7300 225° Southwest 251 289 9,900  Level FlightAware ADS-B
Wed 06:13:14 PM 46.4850 -71.7600 225° Southwest 257 296 9,900  Level FlightAware ADS-B
Wed 06:13:29 PM 46.4730 -71.7790 227° Southwest 257 296 9,900  Level FlightAware ADS-B
Wed 06:13:59 PM 46.4480 -71.8150 225° Southwest 255 293 9,900 -120 Level FlightAware ADS-B
Wed 06:14:19 PM 46.4310 -71.8390 224° Southwest 254 292 9,800 797 Descending FlightAware ADS-B
Wed 06:16:07 PM 46.3540 -71.9520 225° Southwest 251 289 11,600 1,277 Climbing FlightAware ADS-B
Wed 06:16:54 PM 46.3060 -72.0210 225° Southwest 241 277 13,100 1,586 Climbing FlightAware ADS-B
Wed 06:17:34 PM 46.2750 -72.0660 225° Southwest 241 277 13,900 1,350 Climbing FlightAware ADS-B
Wed 06:18:14 PM 46.2440 -72.1110 225° Southwest 235 270 14,900 1,341 Climbing FlightAware ADS-B
Wed 06:18:59 PM 46.2100 -72.1610 226° Southwest 238 274 15,800 600 Climbing FlightAware ADS-B
Wed 06:19:44 PM 46.1730 -72.2140 225° Southwest 251 289 15,800 67 Level FlightAware ADS-B
Wed 06:20:29 PM 46.1380 -72.2650 225° Southwest 234 269 15,900 75 Climbing FlightAware ADS-B
Wed 06:21:04 PM 46.1080 -72.3010 220° Southwest 248 285 15,900 -109 Level FlightAware ADS-B
Wed 06:21:24 PM 46.0860 -72.3110 197° South 259 298 15,800  Descending FlightAware ADS-B
Wed 06:21:59 PM 46.0460 -72.3240 193° South 263 303 15,900  Climbing FlightAware ADS-B
Wed 06:22:44 PM 45.9930 -72.3400 192° South 262 302 15,800 -71 Descending FlightAware ADS-B
Wed 06:23:24 PM 45.9450 -72.3550 192° South 255 293 15,800  Level FlightAware ADS-B
Wed 06:24:04 PM 45.9000 -72.3690 192° South 255 293 15,800  Level FlightAware ADS-B
Wed 06:24:44 PM 45.8540 -72.3840 193° South 254 292 15,800 -353 Level FlightAware ADS-B
Wed 06:25:29 PM 45.8060 -72.4080 199° South 250 288 15,300 -1,100 Descending FlightAware ADS-B
Wed 06:25:44 PM 45.7950 -72.4270 230° Southwest 252 290 14,700 -2,040 Descending FlightAware ADS-B
Wed 06:26:19 PM 45.7850 -72.4830 256° West 249 287 13,600 -1,875 Descending FlightAware ADS-B
Wed 06:27:04 PM 45.7760 -72.5540 260° West 241 277 12,200 -2,118 Descending FlightAware ADS-B
Wed 06:27:44 PM 45.7670 -72.6160 258° West 242 278 10,600 -2,123 Descending FlightAware ADS-B
Wed 06:28:09 PM 45.7610 -72.6540 257° West 235 270 9,900 -1,800 Descending FlightAware ADS-B
Wed 06:28:34 PM 45.7560 -72.6910 259° West 228 262 9,100 -1,775 Descending FlightAware ADS-B
Wed 06:29:20 PM 45.7460 -72.7580 258° West 221 254 7,800 -1,279 Descending FlightAware ADS-B
Wed 06:29:35 PM 45.7430 -72.7790 258° West 225 259 7,800  Level FlightAware ADS-B
Wed 06:30:19 PM 45.7370 -72.8460 263° West 226 260 7,800 70 Level FlightAware ADS-B
Wed 06:31:01 PM 45.7310 -72.9080 262° West 226 260 7,900 111 Climbing FlightAware ADS-B
Wed 06:31:13 PM 45.7290 -72.9240 260° West 226 260 7,900 -231 Level FlightAware ADS-B
Wed 06:31:27 PM 45.7270 -72.9470 263° West 226 260 7,800  Descending FlightAware ADS-B
Wed 06:31:55 PM 45.7230 -72.9880 262° West 226 260 7,900 107 Climbing FlightAware ADS-B
Wed 06:32:23 PM 45.7180 -73.0300 260° West 227 261 7,900 -107 Level FlightAware ADS-B
Wed 06:32:51 PM 45.7140 -73.0710 262° West 226 260 7,800 -222 Descending FlightAware ADS-B
Wed 06:33:17 PM 45.7100 -73.1100 262° West 220 253 7,700 -783 Descending FlightAware ADS-B
Wed 06:33:37 PM 45.7060 -73.1380 258° West 220 253 7,200 -1,773 Descending FlightAware ADS-B
Wed 06:34:01 PM 45.6990 -73.1730 254° West 220 253 6,400 -1,846 Descending FlightAware ADS-B
Wed 06:34:29 PM 45.6920 -73.2100 255° West 218 251 5,600 -1,500 Descending FlightAware ADS-B
Wed 06:35:01 PM 45.6830 -73.2550 254° West 212 244 4,900 -857 Descending FlightAware ADS-B
Wed 06:35:25 PM 45.6760 -73.2880 253° West 214 246 4,800  Descending FlightAware ADS-B
Wed 06:35:41 PM 45.6720 -73.3100 255° West 216 249 4,900  Climbing FlightAware ADS-B
Wed 06:36:09 PM 45.6640 -73.3490 254° West 214 246 4,800 -964 Descending FlightAware ADS-B
Wed 06:36:37 PM 45.6570 -73.3860 255° West 202 232 4,000 -1,385 Descending FlightAware ADS-B
Wed 06:36:48 PM 45.6550 -73.3990 258° West 188 216 3,900 -324 Descending FlightAware ADS-B
Wed 06:37:14 PM 45.6490 -73.4280 254° West 173 199 3,800  Descending FlightAware ADS-B
Wed 06:37:44 PM 45.6430 -73.4600 255° West 167 192 3,900 107 Climbing FlightAware ADS-B
Wed 06:38:10 PM 45.6370 -73.4880 253° West 170 196 3,900 -120 Level FlightAware ADS-B
Wed 06:38:34 PM 45.6300 -73.5130 248° West 174 200 3,800 -111 Descending FlightAware ADS-B
Wed 06:39:04 PM 45.6130 -73.5370 225° Southwest 171 197 3,800 -316 Level FlightAware ADS-B
Wed 06:39:12 PM 45.6080 -73.5430 220° Southwest 175 201 3,600 -1,421 Descending FlightAware ADS-B
Wed 06:39:42 PM 45.5900 -73.5680 224° Southwest 180 207 2,900 -1,179 Descending FlightAware ADS-B
Wed 06:40:08 PM 45.5740 -73.5890 223° Southwest 189 217 2,500 -1,000 Descending FlightAware ADS-B
Wed 06:40:24 PM 45.5630 -73.6020 220° Southwest 183 211 2,200 -1,050 Descending FlightAware ADS-B
Wed 06:40:48 PM 45.5500 -73.6210 226° Southwest 159 183 1,800 -818 Descending FlightAware ADS-B
Wed 06:41:08 PM 45.5390 -73.6350 222° Southwest 154 177 1,600 -840 Descending FlightAware ADS-B
Wed 06:41:38 PM 45.5230 -73.6560 223° Southwest 154 177 1,100 -828 Descending FlightAware ADS-B
Wed 06:42:06 PM 45.5080 -73.6750 222° Southwest 150 173 800 -692 Descending FlightAware ADS-B
Wed 06:42:30 PM 45.4980 -73.6880 222° Southwest 140 161 500 -714 Descending FlightAware ADS-B
Wed 06:42:48 PM 45.4900 -73.6990 224° Southwest 123 142 300 -632 Descending FlightAware ADS-B
Wed 06:43:08 PM 45.4810 -73.7110 223° Southwest 118 136 100 -600 Descending FlightAware ADS-B
Wed 06:43:58 PM 45.4660 -73.7300 222° Southwest 89 102 -120 Descending FlightAware ADS-B
Wed 06:44:46 PM 45.4720 -73.7230 39° Northeast 12 14  Level FlightAware ADS-B
Wed 06:45:22 PM 45.4710 -73.7210 125° Southeast 9 10  Level FlightAware ADS-B
Wed 06:46:03 PM 45.4730 -73.7180 46° Northeast 10 12  Level FlightAware ADS-B
Wed 06:46:43 PM 45.4720 -73.7170 145° Southeast 2 2  Level FlightAware ADS-B

Login

Don't have an account? Register now (free) for customized features, flight alerts, and more!